Theta_e
313 313 314 311 311 308 303 302 299 296 297 300 302 303 302 300 299 298 298 299 295 292
311 312 313 311 310 308 306 304 301 297 295 295 298 300 300 298 297 298 297 296 292 290
309 310 311 310 309 308 305 302 300 296 294 293 295 294 296 294 293 294 293 291 289 288
308 309 309 307 306 305 304 298 294 291 290 290 289 290 291 291 290 290 288 288 287 286
306 307 306 306 304 302 296 292 292 290 288 287 287 288 289 288 288 287 285 286 285 283
304 303 302 302 300 296 293 289 287 287 286 285 285 285 286 286 286 286 285 284 283 282
303 302 301 301 298 293 291 287 286 286 285 284 284 284 283 283 285 284 284 284 283 282
302 302 301 299 296 292 290 287 286 284 284 283 282 282 283 283 283 283 282 282 282 282
299 297 295 293 290 288 286 285 284 283 282 282 281 285 287 284 282 282 281 281 281 281
293 292 291 289 287 286 285 284 283 282 282 281 281 286 287 286 282 281 281 281 281 281
291 290 289 287 286 286 285 283 282 282 282 281 281 286 287 285 281 281 281 281 281 282
290 288 287 286 285 285 284 283 283 283 282 282 281 286 287 284 282 281 281 281 283 283
288 287 286 286 285 285 284 283 282 282 282 282 281 286 286 283 282 280 280 282 283 283
287 286 286 286 285 284 282 281 280 280 281 281 283 285 287 284 282 281 280 280 281 283
Wind_Speed
15 10 9 12 10 9 9 9 12 11 10 11 12 12 12 9 8 8 6 10 7 6
13 13 10 12 11 9 10 9 12 13 11 11 11 11 11 8 10 10 9 9 8 6
13 13 12 11 11 11 10 9 10 11 11 11 12 10 10 7 9 11 8 7 10 7
11 13 12 11 10 10 9 10 9 9 11 13 12 11 10 9 10 11 10 10 11 10
12 11 12 12 12 11 9 7 10 10 11 10 10 12 12 12 12 13 13 12 12 12
13 13 13 12 11 10 10 10 9 10 11 10 11 11 8 10 11 12 13 14 14 13
15 15 13 13 13 12 12 12 11 11 11 11 11 9 8 8 9 11 11 11 11 13
12 12 12 12 10 10 11 10 11 11 9 9 10 10 13 11 10 11 11 10 11 9
11 9 8 7 9 10 9 9 9 10 11 11 8 17 18 14 11 10 12 11 9 9
7 8 8 8 9 10 10 9 10 10 10 11 10 21 20 16 8 10 10 11 11 8
8 9 9 10 10 9 9 10 10 10 10 9 9 23 22 17 11 8 9 10 11 11
8 8 9 10 10 9 8 8 8 8 9 9 8 23 22 17 10 9 9 8 10 10
7 7 8 8 9 7 7 7 6 6 7 8 8 22 24 13 8 8 8 8 6 11
6 7 7 7 6 7 7 7 7 8 7 8 9 15 22 18 9 9 8 8 8 7
Wind_Direction
223 226 208 209 203 196 182 193 175 180 188 189 184 179 173 178 184 185 180 175 161 160
220 220 217 218 207 206 184 186 184 179 181 184 182 179 174 174 182 185 181 172 159 152
217 217 211 215 205 202 187 173 169 176 180 184 179 170 173 174 170 175 170 151 148 135
219 217 210 212 205 203 183 164 170 176 182 187 175 169 174 175 171 168 156 149 147 139
215 213 216 214 204 192 178 154 176 182 182 183 179 173 175 175 174 165 159 153 144 146
211 207 212 211 203 185 175 170 167 174 180 179 182 176 173 175 169 166 163 157 152 150
219 205 205 205 197 185 175 169 177 183 185 183 179 174 159 163 166 162 157 154 152 153
224 211 203 202 189 182 179 175 177 175 179 174 175 176 167 166 165 155 148 143 141 151
215 199 200 184 176 176 175 168 166 178 177 178 187 183 178 163 160 153 149 148 143 140
187 178 177 171 173 181 176 165 177 179 177 185 178 178 177 162 157 150 155 152 151 142
183 183 175 173 181 180 174 175 178 184 184 178 179 180 179 158 150 149 155 161 157 152
191 183 178 185 184 178 169 173 177 175 174 176 170 182 178 157 150 152 155 149 157 151
175 175 184 179 171 166 166 161 143 145 159 155 157 177 180 153 151 150 150 161 162 169
155 164 164 152 149 144 137 131 135 135 140 139 154 170 175 170 160 170 165 173 189 196